Weather History for Wautoma, WI

Change the Weather History Date:

Thursday, July 18, 2013

  Actual Average (KPCZ) Record (KPCZ)
Temperature  
Mean Temperature 82 °F -  
Max Temperature 95 °F 84 °F 96 °F (1986)
Min Temperature 68 °F 62 °F 50 °F (1979)
Cooling Degree Days 16    
Growing Degree Days 32 (Base 50)    
Moisture  
Dew Point 71 °F    
Average Humidity 68    
Maximum Humidity 100    
Minimum Humidity 42    
Precipitation  
Precipitation 0.00 in - - ()
Sea Level Pressure  
Sea Level Pressure 30.00 in    
Wind  
Wind Speed 6 mph (SW)    
Max Wind Speed 16 mph    
Max Gust Speed 23 mph    
Visibility 10 miles    
Events      
Averages and records for this station are not official NWS values.
T = Trace of Precipitation, MM = Missing Value Source: NWS Daily Summary

Daily Weather History Graph

Daily Weather History Graph

Search for Another Location

Airport:

Trip Planner

Search our weather history database for the weather conditions in past years. The results will help you decide how hot, cold, wet, or windy it might be!

Date:

Astronomy

Jul. 18, 2013 Rise Set
Actual Time 5:31 AM CDT 8:35 PM CDT
Civil Twilight 4:56 AM CDT 9:09 PM CDT
Nautical Twilight 4:12 AM CDT 9:54 PM CDT
Astronomical Twilight 3:18 AM CDT 10:46 PM CDT
Moon 4:31 PM CDT (7/18) 1:23 AM CDT (7/18)
Length of Visible Light 16h 13m
Length of Day
15h 04m
Waxing Gibbous, 77% of the Moon is Illuminated
Jul 18
Waxing Gibbous
Jul 22
Full
Jul 29
Last Quarter
Aug 6
New
Aug 14
First Quarter

Hourly Weather History & Observations

Time (CDT) Temp. Heat Index Dew Point Humidity Pressure Visibility Wind Dir Wind Speed Gust Speed Precip Events Conditions
12:56 AM 72.0 °F - 72.0 °F 100% 30.14 in 10.0 mi Calm Calm - N/A   Clear
1:56 AM 70.0 °F - 70.0 °F 100% 30.14 in 9.0 mi Calm Calm - N/A   Clear
2:56 AM 70.0 °F - 70.0 °F 100% 30.13 in 10.0 mi Calm Calm - N/A   Clear
3:56 AM 68.9 °F - 68.9 °F 100% 30.13 in 10.0 mi Calm Calm - N/A   Clear
4:56 AM 68.9 °F - 68.9 °F 100% 30.11 in 10.0 mi Calm Calm - N/A   Clear
5:56 AM 68.9 °F - 68.9 °F 100% 30.10 in 10.0 mi Calm Calm - N/A   Clear
6:56 AM 75.9 °F - 74.8 °F 96% 30.09 in 10.0 mi SW 4.6 mph - N/A   Clear
7:56 AM 81.9 °F 87.7 °F 73.9 °F 77% 30.08 in 10.0 mi SW 6.9 mph - N/A   Clear
8:56 AM 86.9 °F 95.0 °F 73.9 °F 65% 30.07 in 10.0 mi SW 9.2 mph - N/A   Clear
9:56 AM 90.0 °F 96.9 °F 72.0 °F 55% 30.06 in 10.0 mi WSW 9.2 mph - N/A   Clear
10:56 AM 91.9 °F 98.4 °F 70.9 °F 50% 30.04 in 10.0 mi WSW 10.4 mph - N/A   Clear
11:56 AM 93.9 °F 100.8 °F 70.9 °F 47% 30.02 in 10.0 mi SSW 15.0 mph 19.6 mph N/A   Partly Cloudy
12:56 PM 93.9 °F 100.3 °F 70.0 °F 46% 30.00 in 10.0 mi WSW 15.0 mph 21.9 mph N/A   Partly Cloudy
1:56 PM 95.0 °F 101.9 °F 70.9 °F 45% 29.98 in 10.0 mi SSW 12.7 mph 17.3 mph N/A   Partly Cloudy
2:56 PM 95.0 °F 101.3 °F 70.0 °F 44% 29.95 in 10.0 mi SW 15.0 mph 20.7 mph N/A   Partly Cloudy
3:56 PM 95.0 °F 100.1 °F 68.9 °F 42% 29.93 in 10.0 mi SW 15.0 mph 21.9 mph N/A   Partly Cloudy
4:56 PM 93.9 °F 100.3 °F 70.0 °F 46% 29.91 in 10.0 mi WSW 15.0 mph 21.9 mph N/A   Clear
5:56 PM 92.8 °F 98.6 °F 70.0 °F 47% 29.89 in 10.0 mi SW 16.1 mph 23.0 mph N/A   Partly Cloudy
6:56 PM 90.9 °F 96.2 °F 70.0 °F 50% 29.87 in 10.0 mi SW 15.0 mph 18.4 mph N/A   Partly Cloudy
7:56 PM 88.0 °F 94.7 °F 72.0 °F 59% 29.85 in 10.0 mi SSW 9.2 mph - N/A   Clear
8:56 PM 84.9 °F 90.1 °F 70.9 °F 63% 29.85 in 10.0 mi SSW 10.4 mph - N/A   Clear
9:56 PM 82.9 °F 87.5 °F 70.9 °F 67% 29.86 in 10.0 mi SSW 8.1 mph - N/A   Clear
10:56 PM 81.9 °F 86.0 °F 70.9 °F 69% 29.85 in 10.0 mi SSW 6.9 mph - N/A   Clear
11:56 PM 79.9 °F - 70.9 °F 74% 29.84 in 10.0 mi SSW 8.1 mph - N/A   Clear